Hourly Data Report for June 14, 2017

BORDEN AWOS
ONTARIO

44°16'20.000" N
79°54'42.000" W
222.50 m
611B002
71534
YBN

Download Data

Hourly Data (June 2017)
Hourly Data Report for June 14, 2017
TIME
LST
Temp Definition
°C
Dew Point Definition
°C
Rel Hum Definition
%
Precip. Amount Definition
mm

Wind Dir Definition
10's deg

Wind Spd Definition
km/h
Visibility Definition
km
Stn Press Definition
kPa
Hmdx Definition


Wind Chill Definition


Weather Definition


00:00 10.8 10.8 100     0 0.2 99.10     LegendNANA
01:00 9.8 9.8 100     0 0.5 99.15     LegendNANA
02:00 9.5 9.5 100   29 4 0.5 99.13     LegendNANA
03:00
04:00 8.8 8.8 100     0 8.0 99.22     LegendNANA
05:00 8.9 8.4 97     0 1.0 99.26     LegendNANA
06:00 12.6 12.4 99     0 14.5 99.35     LegendNANA
07:00
08:00 18.6 9.7 56   11 13 14.5 99.37     LegendNANA
09:00 19.7 9.3 51   14 11 14.5 99.39     LegendNANA
10:00 21.0 10.7 52   13 17 14.5 99.34     LegendNANA
11:00 22.3 10.8 48   13 17 14.5 99.28     LegendNANA
12:00 23.3 10.5 44   14 15 14.5 99.26 25   LegendNANA
13:00 24.0 9.7 40   16 11 14.5 99.25 25   LegendNANA
14:00 24.5 10.2 40   16 15 14.5 99.24 26   LegendNANA
15:00 24.8 9.8 39   16 13 14.5 99.16 26   LegendNANA
16:00 24.7 9.2 37   13 9 14.5 99.11 26   LegendNANA
17:00 24.6 8.5 36   11 9 14.5 99.05 25   LegendNANA
18:00 24.0 11.0 44   8 15 14.5 98.94 26   LegendNANA
19:00 22.3 10.9 48   12 9 14.5 98.92     LegendNANA
20:00 19.8 11.4 58   12 13 14.5 98.95     LegendNANA
21:00 17.5 10.1 62   14 9 14.5 98.97     LegendNANA
22:00 15.6 9.7 68   12 9 14.5 99.02     LegendNANA
23:00 14.7 8.6 67   16 11 14.5 99.00     LegendNANA

Notes on Data Quality.

Legend

  • E = Estimated
  • M = Missing
  • NA = Not Available*
  • [empty] = Indicates an unobserved value
Date modified: